Flag for Germany Weather past 2 weeks in Konstanz, Baden-Württemberg, Germany

Now
67 °F

Overcast.


Feels Like: 67 °F
Forecast: 54 / 66 °F
Wind: 6 mph from West

Location: Konstanz

Current Time: Jul 28, 2015 at 1:17:38 PM

Latest Report: Jul 28, 2015 at 1:00 PM


Visibility: 25 mi

Pressure: 29.86 "Hg

Humidity: 50%

Dew point: 47 °F

Location of KonstanzLocation

Historic Weather in Konstanz — Graph

°F

Konstanz temperature yesterday

Maximum temperature yesterday: 75 °F (at 6:00 PM)
Minimum temperature yesterday: 57 °F (at 2:00 AM)
Average temperature yesterday: 66 °F

Past Weeks' High & Low Weather Summary

 TemperatureHumidityPressure
High95 °F (Jul 22, 5:00 PM)95% (Jul 19, 3:00 AM)30.14 "Hg (Jul 19, 3:00 AM)
Low57 °F (Jul 27, 2:00 AM)22% (Jul 22, 5:00 PM)29.66 "Hg (Jul 24, 7:00 PM)
Average74 °F60%29.95 "Hg
* Reported Jul 13 12:00 Noon — Jul 28 12:00 Noon, Konstanz, Weather by CustomWeather, © 2015

Note: Actual official high and low records may vary slightly from our data, if they occured in-between our weather recording intervals... More about our weather records

Advertising

Konstanz weather history for previous 24 hours

 ConditionsComfort  
Time TempWeatherWind HumidityBarometerVisibility
12:00 PM
Tue, Jul 28
65 °FOvercast.6 mph52%29.88 "Hg25 mi
11:00 AM64 °FOvercast.6 mph58%29.89 "Hg25 mi
10:00 AM64 °FOvercast.7 mph57%29.88 "Hg28 mi
9:00 AM64 °FOvercast.7 mph59%29.87 "Hg19 mi
8:00 AM64 °FOvercast.7 mph60%29.86 "Hg22 mi
7:00 AM64 °FOvercast.5 mph62%29.85 "Hg22 mi
6:00 AM64 °FOvercast.6 mph59%29.83 "Hg25 mi
5:00 AM64 °FPassing clouds.3 mph59%29.83 "Hg43 mi
4:00 AM65 °FOvercast.3 mph61%29.83 "Hg43 mi
3:00 AM64 °FOvercast.2 mph62%29.83 "Hg43 mi
2:00 AM64 °FOvercast.2 mph61%29.84 "Hg43 mi
1:00 AM66 °FOvercast.3 mph58%29.84 "Hg43 mi
11:00 PM
Mon, Jul 27
67 °FClear.5 mph55%29.84 "Hg43 mi
10:00 PM68 °FOvercast.3 mph52%29.83 "Hg43 mi
9:00 PM70 °FPassing clouds.5 mph48%29.81 "Hg37 mi
8:00 PM72 °FPassing clouds.7 mph45%29.79 "Hg37 mi
7:00 PM74 °FPassing clouds.7 mph40%29.77 "Hg37 mi
6:00 PM75 °FScattered clouds.8 mph38%29.77 "Hg37 mi
5:00 PM74 °FPassing clouds.9 mph40%29.76 "Hg47 mi
4:00 PM74 °FPassing clouds.8 mph44%29.76 "Hg47 mi
3:00 PM73 °FPassing clouds.8 mph46%29.75 "Hg47 mi
2:00 PM71 °FScattered clouds.8 mph51%29.75 "Hg47 mi
1:00 PM73 °FScattered clouds.6 mph50%29.75 "Hg28 mi
Weather by CustomWeather, © 2015

See weather overviewHow to use our weather pages